Weather History for KMMT - June, 2013

Change the Weather History Date:

Wednesday, June 19, 2013

  Actual Average Record
Temperature  
Mean Temperature 74 °F -  
Max Temperature 81 °F 86 °F 96 °F (1998)
Min Temperature 69 °F 68 °F 60 °F (2008)
Cooling Degree Days 10    
Growing Degree Days 24 (Base 50)    
Moisture  
Dew Point 69 °F    
Average Humidity 88    
Maximum Humidity 100    
Minimum Humidity 62    
Precipitation  
Precipitation 0.10 in - - ()
Sea Level Pressure  
Sea Level Pressure 29.98 in    
Wind  
Wind Speed 3 mph (NE)    
Max Wind Speed 10 mph    
Max Gust Speed -    
Visibility 9 miles    
Events Rain    
Averages and records for this station are not official NWS values.
T = Trace of Precipitation, MM = Missing Value Source: NWS Daily Summary

Daily Weather History Graph

Daily Weather History Graph

Search for Another Location

Airport or City:

Trip Planner

Search our weather history database for the weather conditions in past years. The results will help you decide how hot, cold, wet, or windy it might be!

Date:

Astronomy

Jun. 19, 2013 Rise Set
Actual Time 6:12 AM EDT 8:37 PM EDT
Civil Twilight 5:43 AM EDT 9:06 PM EDT
Nautical Twilight 5:07 AM EDT 9:42 PM EDT
Astronomical Twilight 4:27 AM EDT 10:21 PM EDT
Moon 4:35 PM EDT (6/19) 2:47 AM EDT (6/19)
Length of Visible Light 15h 23m
Length of Day
14h 24m
Waxing Gibbous, 80% of the Moon is Illuminated
Jun 19
Waxing Gibbous
Jun 23
Full
Jun 30
Last Quarter
Jul 8
New
Jul 15
First Quarter

Hourly Weather History & Observations

Time (EDT) Temp. Heat Index Dew Point Humidity Pressure Visibility Wind Dir Wind Speed Gust Speed Precip Events Conditions
12:58 AM 72.0 °F - 68.2 °F 88% 29.90 in 10.0 mi West 2.3 mph - N/A   Scattered Clouds
1:58 AM 70.7 °F - 68.9 °F 94% 29.91 in 10.0 mi NNW 4.6 mph - N/A   Scattered Clouds
2:18 AM 71.6 °F - 69.8 °F 94% 29.91 in 10.0 mi NW 4.6 mph - N/A   Mostly Cloudy
2:38 AM 71.6 °F - 69.8 °F 94% 29.91 in 10.0 mi WNW 3.5 mph - N/A   Mostly Cloudy
2:58 AM 72.3 °F - 70.2 °F 93% 29.91 in 10.0 mi NW 1.2 mph - N/A   Mostly Cloudy
3:08 AM 71.6 °F - 69.8 °F 94% 29.91 in 10.0 mi Calm Calm - N/A   Scattered Clouds
3:58 AM 70.3 °F - 70.2 °F 99% 29.91 in 10.0 mi Calm Calm - N/A   Partly Cloudy
4:48 AM 69.8 °F - 69.8 °F 100% 29.91 in 10.0 mi Calm Calm - N/A   Mostly Cloudy
4:58 AM 69.8 °F - 69.8 °F 100% 29.93 in 10.0 mi Calm Calm - N/A   Mostly Cloudy
5:18 AM 69.8 °F - 69.8 °F 100% 29.92 in 10.0 mi Calm Calm - N/A   Scattered Clouds
5:58 AM 69.6 °F - 69.6 °F 100% 29.94 in 7.0 mi South 2.3 mph - N/A   Mostly Cloudy
6:58 AM 70.3 °F - 70.3 °F 100% 29.96 in 6.0 mi NW 1.2 mph - N/A   Overcast
7:33 AM 71.6 °F - 71.6 °F 100% 29.96 in 3.0 mi North 3.5 mph - N/A Rain Light Rain Showers
7:38 AM 71.6 °F - 71.6 °F 100% 29.96 in 6.0 mi North 3.5 mph - N/A Rain Light Rain Showers
7:48 AM 71.6 °F - 71.6 °F 100% 29.96 in 6.0 mi Calm Calm - N/A Rain Light Rain Showers
7:58 AM 71.6 °F - 71.6 °F 100% 29.96 in 6.0 mi Calm Calm - 0.10 in   Overcast
8:18 AM 71.6 °F - 71.6 °F 100% 29.97 in 7.0 mi Calm Calm - N/A   Overcast
8:38 AM 73.4 °F - 71.6 °F 94% 29.98 in 10.0 mi North 1.2 mph - N/A   Overcast
8:58 AM 73.0 °F - 71.1 °F 93% 29.99 in 10.0 mi NNE 2.3 mph - 0.00 in   Overcast
9:16 AM 73.4 °F - 71.6 °F 94% 29.99 in 10.0 mi NE 4.6 mph - N/A   Overcast
9:58 AM 73.4 °F - 71.2 °F 93% 29.99 in 10.0 mi NE 4.6 mph - N/A   Overcast
10:08 AM 73.4 °F - 71.6 °F 94% 30.00 in 10.0 mi Variable 4.6 mph - N/A   Overcast
10:23 AM 73.4 °F - 69.8 °F 88% 30.00 in 10.0 mi Variable 4.6 mph - N/A   Overcast
10:58 AM 73.6 °F - 70.2 °F 89% 30.01 in 10.0 mi NE 5.8 mph - N/A   Overcast
11:58 AM 74.7 °F - 69.8 °F 85% 30.02 in 10.0 mi ENE 8.1 mph - N/A   Overcast
12:46 PM 77.0 °F - 69.8 °F 78% 30.02 in 10.0 mi ENE 6.9 mph - N/A   Overcast
12:58 PM 76.8 °F - 69.6 °F 78% 30.02 in 10.0 mi East 9.2 mph - N/A   Overcast
1:58 PM 74.7 °F - 68.9 °F 82% 30.01 in 10.0 mi ENE 4.6 mph - N/A   Mostly Cloudy
2:38 PM 77.0 °F - 69.8 °F 78% 30.00 in 10.0 mi NNE 4.6 mph - N/A   Mostly Cloudy
2:58 PM 78.1 °F - 68.7 °F 73% 30.00 in 10.0 mi NE 6.9 mph - N/A   Mostly Cloudy
3:58 PM 80.1 °F 82.4 °F 67.3 °F 65% 30.00 in 10.0 mi ENE 8.1 mph - N/A   Mostly Cloudy
4:58 PM 80.1 °F 82.1 °F 66.0 °F 62% 30.00 in 10.0 mi NE 10.4 mph - N/A   Mostly Cloudy
5:58 PM 79.3 °F - 65.3 °F 62% 30.01 in 10.0 mi East 6.9 mph - N/A   Mostly Cloudy
6:58 PM 77.5 °F - 66.9 °F 70% 30.02 in 10.0 mi ESE 5.8 mph - N/A   Mostly Cloudy
7:58 PM 76.6 °F - 67.6 °F 74% 30.02 in 10.0 mi ENE 4.6 mph - N/A   Mostly Cloudy
8:58 PM 73.6 °F - 68.0 °F 83% 30.06 in 10.0 mi East 5.8 mph - N/A   Mostly Cloudy
9:58 PM 72.1 °F - 68.2 °F 87% 30.07 in 10.0 mi ENE 2.3 mph - N/A   Mostly Cloudy
10:58 PM 71.8 °F - 66.0 °F 82% 30.09 in 10.0 mi NE 3.5 mph - N/A   Mostly Cloudy
11:58 PM 70.2 °F - 66.0 °F 87% 30.09 in 10.0 mi NE 2.3 mph - N/A   Clear